Change the Weather History Date:

Friday, January 25, 2013

  Actual Average (LGKO) Record (LGKO)
Temperature  
Mean Temperature 53 °F -  
Max Temperature 62 °F 54 °F 64 °F (2007)
Min Temperature 44 °F 47 °F 41 °F (2006)
Degree Days  
Heating Degree Days 12    
Growing Degree Days 3 (Base 50)    
Moisture  
Dew Point 48 °F    
Average Humidity 77    
Maximum Humidity 100    
Minimum Humidity 55    
Precipitation  
Precipitation 0.00 in - - ()
Sea Level Pressure  
Sea Level Pressure 29.75 in    
Wind  
Wind Speed 9 mph ()    
Max Wind Speed 23 mph    
Max Gust Speed -    
Visibility 6.0 miles    
Events Rain , Thunderstorm    
Averages and records for this station are not official NWS values.
T = Trace of Precipitation, MM = Missing Value Source: Averaged Metar Reports

Daily Weather History Graph

Daily Weather History Graph

Search for Another Location

Airport or City:

Trip Planner

Search our weather history database for the weather conditions in past years. The results will help you decide how hot, cold, wet, or windy it might be!

Date:

Astronomy

Jan. 25, 2013 Rise Set
Actual Time 7:17 AM EET 5:26 PM EET
Civil Twilight 6:49 AM EET 5:54 PM EET
Nautical Twilight 6:18 AM EET 6:25 PM EET
Astronomical Twilight 5:47 AM EET 6:56 PM EET
Moon 4:05 PM EET (1/25) 5:43 AM EET (1/25)
Length of Visible Light 11h 04m
Length of Day
10h 08m
Waxing Gibbous, 97% of the Moon is Illuminated
Jan 25
Waxing Gibbous
Jan 27
Full
Feb 3
Last Quarter
Feb 10
New
Feb 17
First Quarter

Hourly Weather History & Observations

Time (EET) Temp. Windchill Dew Point Humidity Pressure Visibility Wind Dir Wind Speed Gust Speed Precip Events Conditions
12:20 AM 59.0 °F - 51.8 °F 77% 29.68 in 3.7 mi South 16.1 mph - N/A Rain , Thunderstorm Thunderstorms and Rain
12:50 AM 57.2 °F - 50.0 °F 77% 29.68 in 3.7 mi SSW 15.0 mph - N/A Rain , Thunderstorm Thunderstorms and Rain
1:20 AM 59.0 °F - 46.4 °F 63% 29.68 in 6.2 mi South 20.7 mph - N/A Thunderstorm Thunderstorm
1:50 AM 50.0 °F - 48.2 °F 94% 29.74 in 2.2 mi West 23.0 mph - N/A Rain , Thunderstorm Heavy Thunderstorms and Rain
2:20 AM 51.8 °F - 48.2 °F 88% 29.74 in - WSW 13.8 mph - N/A Rain , Thunderstorm Thunderstorms and Rain
2:50 AM 50.0 °F - 48.2 °F 94% 29.74 in 6.2 mi SE 6.9 mph - N/A Rain , Thunderstorm Light Thunderstorms and Rain
3:20 AM 50.0 °F - 48.2 °F 94% 29.74 in 6.2 mi East 6.9 mph - N/A Thunderstorm Thunderstorm
3:50 AM 48.2 °F - 46.4 °F 93% 29.71 in 6.2 mi SE 9.2 mph - N/A Thunderstorm Thunderstorm
4:20 AM 48.2 °F - 46.4 °F 93% 29.74 in 6.2 mi ENE 5.8 mph - N/A Rain , Thunderstorm Light Thunderstorms and Rain
4:50 AM 50.0 °F - 46.4 °F 87% 29.74 in 6.2 mi NNE 4.6 mph - N/A Rain , Thunderstorm Light Thunderstorms and Rain
5:20 AM 48.2 °F - 46.4 °F 93% 29.74 in 6.2 mi SE 5.8 mph - N/A Rain , Thunderstorm Light Thunderstorms and Rain
5:50 AM 48.2 °F - 46.4 °F 93% 29.74 in 6.2 mi East 3.5 mph - N/A Rain , Thunderstorm Light Thunderstorms and Rain
6:20 AM 46.4 °F 44.3 °F 44.6 °F 93% 29.77 in 6.2 mi East 4.6 mph - N/A   Mostly Cloudy
6:50 AM 46.4 °F 44.3 °F 44.6 °F 93% 29.77 in 6.2 mi ESE 4.6 mph - N/A   Mostly Cloudy
7:20 AM 46.4 °F 45.2 °F 44.6 °F 93% 29.77 in 6.2 mi East 3.5 mph - N/A   Mostly Cloudy
7:50 AM 44.6 °F 43.1 °F 44.6 °F 100% 29.77 in 6.2 mi East 3.5 mph - N/A   Scattered Clouds
8:20 AM 46.4 °F 45.2 °F 44.6 °F 93% 29.77 in 6.2 mi South 3.5 mph - N/A   Scattered Clouds
8:50 AM 48.2 °F - 46.4 °F 93% 29.77 in 6.2 mi Variable 1.2 mph - N/A   Scattered Clouds
9:20 AM 50.0 °F - 48.2 °F 94% 29.77 in 6.2 mi Variable 3.5 mph - N/A   Scattered Clouds
9:50 AM 53.6 °F - 48.2 °F 82% 29.77 in 6.2 mi NE 3.5 mph - N/A   Mostly Cloudy
10:20 AM 57.2 °F - 50.0 °F 77% 29.80 in 6.2 mi Variable 3.5 mph - N/A   Mostly Cloudy
10:50 AM 59.0 °F - 50.0 °F 72% 29.80 in 6.2 mi Variable 1.2 mph - N/A   Mostly Cloudy
11:20 AM 59.0 °F - 50.0 °F 72% 29.80 in 6.2 mi Variable 3.5 mph - N/A   Mostly Cloudy
11:50 AM 60.8 °F - 46.4 °F 59% 29.80 in 6.2 mi South 11.5 mph - N/A   Mostly Cloudy
12:20 PM 62.6 °F - 46.4 °F 55% 29.77 in 6.2 mi South 9.2 mph - N/A   Mostly Cloudy
12:50 PM 62.6 °F - 46.4 °F 55% 29.77 in 6.2 mi South 10.4 mph - N/A   Mostly Cloudy
1:20 PM 60.8 °F - 44.6 °F 55% 29.77 in 6.2 mi SSW 8.1 mph - N/A   Mostly Cloudy
1:50 PM 60.8 °F - 48.2 °F 63% 29.74 in 6.2 mi SSW 9.2 mph - N/A   Mostly Cloudy
2:20 PM 62.6 °F - 48.2 °F 59% 29.74 in 6.2 mi South 12.7 mph - N/A   Mostly Cloudy
2:50 PM 60.8 °F - 46.4 °F 59% 29.74 in 6.2 mi South 11.5 mph - N/A   Mostly Cloudy
3:20 PM 59.0 °F - 48.2 °F 67% 29.74 in 6.2 mi SE 10.4 mph - N/A   Mostly Cloudy
3:50 PM 59.0 °F - 48.2 °F 67% 29.74 in 6.2 mi SE 12.7 mph - N/A   Mostly Cloudy
4:20 PM 57.2 °F - 48.2 °F 72% 29.74 in 6.2 mi SE 10.4 mph - N/A   Mostly Cloudy
4:50 PM 57.2 °F - 48.2 °F 72% 29.74 in 6.2 mi ESE 8.1 mph - N/A   Mostly Cloudy
5:20 PM 57.2 °F - 48.2 °F 72% 29.74 in 6.2 mi East 6.9 mph - N/A   Mostly Cloudy
5:50 PM 57.2 °F - 48.2 °F 72% 29.74 in 6.2 mi ESE 10.4 mph - N/A   Mostly Cloudy
6:20 PM 57.2 °F - 48.2 °F 72% 29.74 in 6.2 mi SE 17.3 mph - N/A Rain Light Rain Showers
6:50 PM 55.4 °F - 50.0 °F 82% 29.74 in 6.2 mi SE 9.2 mph - N/A Rain Light Rain Showers
7:20 PM 57.2 °F - 48.2 °F 72% 29.74 in 6.2 mi SE 11.5 mph - N/A Rain Light Rain Showers
7:50 PM 57.2 °F - 50.0 °F 77% 29.77 in 3.7 mi South 11.5 mph - N/A Rain Rain Showers
8:20 PM 55.4 °F - 50.0 °F 82% 29.74 in 6.2 mi SSE 6.9 mph - N/A   Mostly Cloudy
8:50 PM 55.4 °F - 50.0 °F 82% 29.74 in 6.2 mi SE 6.9 mph - N/A Rain Light Rain Showers
9:20 PM 59.0 °F - 48.2 °F 67% 29.74 in 6.2 mi SSE 15.0 mph - N/A   Mostly Cloudy
9:50 PM 59.0 °F - 48.2 °F 67% 29.74 in 6.2 mi SSE 15.0 mph - N/A   Mostly Cloudy
10:20 PM 57.2 °F - 48.2 °F 72% 29.74 in 6.2 mi SE 10.4 mph - N/A Rain Light Rain Showers
10:50 PM 57.2 °F - 48.2 °F 72% 29.74 in 6.2 mi SSE 12.7 mph - N/A Rain Light Rain Showers
11:20 PM 59.0 °F - 48.2 °F 67% 29.74 in 6.2 mi South 16.1 mph - N/A   Mostly Cloudy
11:50 PM 59.0 °F - 44.6 °F 59% 29.74 in 6.2 mi South 20.7 mph - N/A   Mostly Cloudy